Weather in Peresypkino 1-ye

Russia / Tambov Oblast     52°54′39″N   42°54′07″E
temp.,
°C
wind,
m/s
gust,
m/s
humid.,
%
clouds,
%
prec.,
mm/h
press.,
hPa
HPBL,
m
22 may, sun
sun2200:00+8sse2464100 0.0 100687
03:00+7se1169100 0.0 100411
06:00+7se2475100 0.0 1001141
09:00+11se346599 0.0 1000939
12:00+12sse3362100 0.2 9991203
15:00+12ne3460100 0.4 9981205
18:00+11ne6971100 0.6 998531
21:00+8nne41080100 0.8 999366
23 may, mon
mon2300:00+4nne5108270 0.0 1001319
03:00+2n48855 0.0 1002213
06:00+2n58765 0.0 1003394
09:00+6nnw665659 0.0 10031240
12:00+8nw5652100 0.0 10031745
15:00+7nw6758100 0.1 10051365
18:00+7wnw4665100 0.1 10051059
21:00+4wsw35785 0.1 100677
24 may, tue
tue2400:00+3sw4108215 0.0 1006191
03:00+3wsw4118662 0.0 1005231
06:00+5wsw5127752 0.0 1005329
09:00+9wnw455529 0.0 1005799
12:00+12w6947100 0.0 10052400
15:00+8nw6873100 0.1 10071032
18:00+9wnw5770100 0.1 10081274
21:00+6nnw3585100 0.6 1010151
25 may, wed
wed2500:00+3nnw35895 0.1 101190
03:00+1nnw36955 0.1 1012119
06:00+3nnw36843 0.0 1014245
09:00+7nnw45615 0.0 10141112
12:00+9nw4555100 0.1 10141642
15:00+9wnw5560100 0.2 10151298
18:00+8nw456694 0.1 10161020
21:00+5wnw338076 0.1 101740
26 may, thu
thu2600:00+3wnw3384100 0.0 101748
03:00+2w33846 0.0 101745
06:00+5wsw347933 0.0 1016167
09:00+10sw456329 0.0 1014767
12:00+14ssw687070 0.0 10111070
15:00+17wsw697092 1.3 10091219
18:00+14w71482100 1.8 1007546
21:00+12sw51389100 2.6 1005463